Location: Unspecified
(0.0000°N, 0.0000°E)
Time: 03:04:52
(UTC+00:00)

Transit 4A - Pass Details

Date: 22 December 2018
Orbit: 864 x 981 km, 66.8° (Epoch: 18 March)

Event Time Altitude Azimuth Distance (km) Brightness Sun altitude
Rises 12:24:00 0° 334° (NNW) 3,617 10.8 65.8°
Reaches altitude 10° 12:26:32 10° 331° (NNW) 2,687 10.3 65.6°
Maximum altitude 12:32:46 65° 251° (WSW) 1,065 9.9 65.1°
Drops below altitude 10° 12:39:07 10° 170° (S) 2,731 10.8 64.6°
Sets 12:41:43 0° 166° (SSE) 3,680 11.3 64.3°
